Regional Weather Roundup
Issued by NWS

Home | Current Version | Previous Version | Graphics & Text | Print | Product List | Glossary On
Versions: 1 2 3 4 5 6 7 8 9 10 11 12 13 14 15 16 17 18 19 20 21 22 23 24 25 26 27 28 29 30 31 32 33 34 35 36 37 38 39 40 41 42 43 44 45 46 47 48 49 50
000
ASUS43 KMPX 270410
RWRMN
WEATHER ROUNDUP FOR MINNESOTA
NATIONAL WEATHER SERVICE TWIN CITIES/CHANHASSEN MN
1100 PM CDT TUE MAY 26 2015


NOTE: "FAIR" INDICATES FEW OR NO CLOUDS BELOW 12,000 FEET WITH NO
SIGNIFICANT WEATHER AND/OR OBSTRUCTIONS TO VISIBILITY. N/A MEANS
CURRENT SKY AND/OR WEATHER CONDITIONS ARE NOT AVAILABLE.

MNZ060>063-068>070-270500-
   Twin Cities Metro

CITY           SKY/WX    TMP DP  RH WIND       PRES   REMARKS
TWIN CITIES    CLOUDY    58  56  93 W5        29.82R
ST PAUL        CLOUDY    57  56  96 W7        29.81R
CRYSTAL        CLOUDY    57  55  93 W7        29.80R
BLAINE         CLOUDY    57  57 100 W3        29.81R
LAKEVILLE      DRIZZLE   55  55 100 W5        29.82R
EDEN PRAIRIE   CLOUDY    56  55  97 W5        29.81R
SOUTH ST PAUL  CLOUDY    58  56  94 W6        29.80S
LAKE ELMO      MOCLDY    55  55 100 W3        29.82R
$$
MNZ001>005-007-008-013>017-022>024-027-028-270500-
   Northwest Minnesota

CITY           SKY/WX    TMP DP  RH WIND       PRES   REMARKS
BEMIDJI        CLOUDY    59  49  71 W5        29.79R
HALLOCK        PTCLDY    66  45  45 CALM      29.76R
ROSEAU         FAIR      64  52  63 S8        29.77S
WARROAD        FAIR      61  54  77 S8        29.77S
THIEF RVR FALL PTCLDY    64  52  63 S6        29.78S
CROOKSTON      PTCLDY    61  52  72 S5        29.78R
FOSSTON        MOCLDY    57  52  82 S6        29.80S
DETROIT LAKES  MOCLDY    61  55  82 SW5       29.83S
MOORHEAD       PTCLDY    63  54  72 SW6       29.81R
PARK RAPIDS    CLOUDY    60  55  83 W5        29.81R
MAHNOMEN       FAIR      62  56  80 S6        29.80S
$$
MNZ006-009>011-018-025>026-270500-
   North Central Minnesota

CITY           SKY/WX    TMP DP  RH WIND       PRES   REMARKS
BAUDETTE       MOCLDY    68  51  54 NW9       29.76R
FLAG ISLAND    PTCLDY    64  52  63 CALM      29.73S
INTL FALLS     MOCLDY    55  50  83 CALM      29.76R
WASKISH        MOCLDY    64  57  77 CALM      29.78R
BIG FORK       CLOUDY    59  54  82 S3        29.79S
LONGVILLE      CLOUDY    61  54  77 CALM      29.81S
GRAND RAPIDS   MOCLDY    55  50  82 S7        29.81S
CRANE LAKE     CLOUDY    54  52  94 CALM      29.79R
ORR            CLOUDY    59  52  77 CALM      29.76S
COOK           MOCLDY    59  52  77 SW3       29.79S
WALKER         FAIR      61  53  73 S7        29.79S
$$
MNZ012-019>021-037-270500-
   Northeast Minnesota

CITY           SKY/WX    TMP DP  RH WIND       PRES   REMARKS
DULUTH         CLOUDY    56  51  84 CALM      29.79S
HIBBING        MOCLDY    52  49  89 CALM      29.80R
EVELETH        MOCLDY    54  52  94 CALM      29.82R
DULUTH HARBOR  CLOUDY    52  50  93 CALM      29.79F
TWO HARBORS    CLOUDY    57  54  88 CALM      29.77S
GRAND MARAIS     N/A     56  52  86 CALM      29.75S
G MARAIS ARPRT CLOUDY    54  48  82 NW3       29.79S
$$
MNZ029>031-032-039>041-046>048-054>057-064-270500-
   West Central Minnesota

CITY           SKY/WX    TMP DP  RH WIND       PRES   REMARKS
FERGUS FALLS   MOCLDY    63  55  77 S3        29.83R
WHEATON        MOCLDY    59  52  77 CALM      29.84R
MORRIS         CLOUDY    59  57  94 S3        29.83R
ALEXANDRIA     CLOUDY    60  52  74 S3        29.85R
ELBOW LAKE     FAIR      63  55  76 SE3       29.83R
WADENA         CLOUDY    59  54  82 S3        29.82S
GLENWOOD       CLOUDY    57  55  94 S7        29.85S
APPLETON       CLOUDY    59  55  88 S3        29.84R
BENSON         CLOUDY    57  55  94 S3        29.85R
ORTONVILLE     CLOUDY    63  54  72 S3        29.83S
MADISON        CLOUDY    61  54  77 S6        29.85R
WILLMAR        FAIR      59  57  94 W3        29.87R
$$
MNZ033>034-036-042>043-049>051-058-059-270500-
   Central Minnesota

CITY           SKY/WX    TMP DP  RH WIND       PRES   REMARKS
ST CLOUD       CLOUDY    57  55  93 NW6       29.82R
SAUK CENTRE    FAIR      58  56  91 SW3       29.84S
PAYNESVILLE    CLOUDY    52  53 100 SW5       29.85R
AITKIN         CLOUDY    55  48  76 SW3       29.81R
PINE RIVER     CLOUDY    59  54  82 CALM      29.85S
BRAINERD       CLOUDY    55  54  96 S3        29.82S
STAPLES        MOCLDY    55  54  94 SW5       29.82F
LONG PRAIRIE   FAIR      55  54  94 S3        29.84S
LITTLE FALLS   CLOUDY    55  54  94 CALM      29.83S
LITCHFIELD     CLOUDY    59  57  94 W6        29.85R
BUFFALO        CLOUDY    57  55  93 W5        29.84R
MAPLE LAKE     CLOUDY    58  57  96 CALM      29.84R
$$
MNZ037-044-045-052-053-270500-
   East Central Minnesota

CITY           SKY/WX    TMP DP  RH WIND       PRES   REMARKS
PRINCETON      CLOUDY    59  54  82 CALM      29.82R
MORA           CLOUDY    55  50  82 CALM      29.82S
CAMBRIDGE      CLOUDY    57  50  77 CALM      29.79S
RUSH CITY      CLOUDY    55  54  95 CALM      29.81R
MOOSE LAKE     CLOUDY    54  54 100 CALM      29.79S
HINCKLEY       FAIR      55  52  88 CALM      29.80S
CLOQUET        CLOUDY    54  50  87 CALM      29.80S
MCGREGOR       MOCLDY    54  52  94 CALM      29.82S
$$
MNZ071>073-080-081-089-090-097-098-270500-
   Southwest Minnesota

CITY           SKY/WX    TMP DP  RH WIND       PRES   REMARKS
MONTEVIDEO     CLOUDY    61  57  88 SW5       29.86S
GRANITE FALLS  CLOUDY    57  55  91 S3        29.88R
CANBY          CLOUDY    58  53  84 SW5       29.87R
MARSHALL       CLOUDY    57  54  88 S5        29.87R
REDWOOD FALLS  CLOUDY    57  55  93 W6        29.85R
OLIVIA         MOCLDY    54  50  87 W5        29.85R
PIPESTONE      CLOUDY   N/A N/A N/A NW2       29.89R
WINDOM         CLOUDY    55  55 100 CALM      29.88R
WORTHINGTON    CLOUDY    57  54  88 CALM      29.89R
JACKSON        DRIZZLE   55  55 100 NW5       29.88R
TRACY          CLOUDY    58  56  95 SW6       29.88R
SLAYTON        CLOUDY    56  56 100 CALM      29.90R
$$
MNZ065>067-074>077-082>085-091>093-270500-
   South Central Minnesota

CITY           SKY/WX    TMP DP  RH WIND       PRES   REMARKS
MANKATO        CLOUDY    57  55  94 W5        29.85R
NEW ULM        CLOUDY    57  57 100 W5        29.85R
ST JAMES       CLOUDY    59  57  94 W7        29.87R
FAIRMONT       CLOUDY    57  52  82 W8        29.86R
GLENCOE        CLOUDY    58  58  98 W3        29.83S
FARIBAULT      DRIZZLE   57  55  94 W3        29.83R
OWATONNA       RAIN      57  55  94 NW6       29.83R
WASECA         CLOUDY    55  54  94 NW5       29.85R
ALBERT LEA     CLOUDY    59  57  94 W5        29.84R
$$
MNZ078>079-086>088-094>096-270500-
   Southeast Minnesota

CITY           SKY/WX    TMP DP  RH WIND       PRES   REMARKS
ROCHESTER      CLOUDY    58  57  97 NW7       29.83R
RED WING       RAIN      57  55  94 NW5       29.79S
STANTON        RAIN      58  56  91 W6        29.81R
DODGE CENTER   CLOUDY    57  57 100 NW7       29.82R FOG
WINONA         CLOUDY    61  57  88 NW7       29.79R
AUSTIN         CLOUDY    57  55  94 NW7       29.83R
PRESTON        CLOUDY    58  56  94 NW7       29.82R
$$
ABBREVIATIONS USED IN REMARKS
   TC - TEMPERATURES IN CELSIUS
  WCI - WIND CHILL INDEX
   HX - HEAT INDEX
  VSB - VISIBILITY
$$


USA.gov is the U.S. government's official web portal to all federal, state and local government web resources and services.